PulseSat

PulseSat

MOLNIYA 3-10

Last updated on April 20, 2019, 3:02 a.m. UTC

1 11057U 78095A   19109.44366432  .00002229  00000-0  33082-3 0  9999
2 11057  62.5309 125.6941 5977634 288.7953  17.7519  4.08552652336438
UTC
Height (km)
Latitude
Longitude
Inclination
Orbital Period

Next 30 passes for location: Hong Kong

Rise time Rise Azimuth (degrees) Set time Set Azimuth (degrees) Duration Max altitude (degrees)

No matching passes for this satellites

PulseSat

PulseSat is the new satellites software and hardware trackering solution by Pulsely.
Satellite Two Line Element Set source: US Air Force Space Command

Download PulseSat for iOS
© 2017 Pulsely Limited